Regional Weather Roundup
Issued by NWS

Home | Current Version | Previous Version | Graphics & Text | Print | Product List | Glossary On
Versions: 1 2 3 4 5 6 7 8 9 10 11 12 13 14 15 16 17 18 19 20 21 22 23 24 25 26 27 28 29 30 31 32 33 34 35 36 37 38 39 40 41 42 43 44 45 46 47 48 49 50
000
ASUS43 KIND 091009
RWRIN

WEATHER ROUNDUP FOR INDIANA
NATIONAL WEATHER SERVICE INDIANAPOLIS IN
500 AM EST FRI DEC 09 2016

NOTE: "FAIR" INDICATES FEW OR NO CLOUDS BELOW 12,000 FEET WITH NO
SIGNIFICANT WEATHER AND/OR OBSTRUCTIONS TO VISIBILITY.

* - STATION DOES NOT REPORT WEATHER SUCH AS PRECIPITATION OR FOG.

+ - STATION NOT QUALITY CONTROLLED BY THE NATIONAL WEATHER SERVICE.
    USE DATA WITH CAUTION...ESPECIALLY DEWPOINT AND RELATIVE
    HUMIDITY OBSERVATIONS.

INZ001>003-010>013-019-020-091100-
NORTHWEST INDIANA

CITY           SKY/WX    TMP DP  RH WIND       PRES   REMARKS
KNOX *+        CLOUDY    23   3  42 W15       30.44S WCI  10
LA PORTE +     FLURRIES  22  18  83 SW14      30.42R WCI   9
MICHIGAN CITY+ FLURRIES  28  23  80 W9        30.42S WCI  20
MONTICELLO +   FLURRIES  22  13  68 W8        30.47S WCI  12
RENSSELAER +   FLURRIES  23  21  93 W12       30.47S WCI  12
VALPARAISO     CLOUDY    23  16  74 MISG      30.45R

$$

LMZ046-743>745-091100-
SOUTHERN LAKE MICHIGAN

STATION/POSITION TIME  TEMP    WIND        PRES    WAVE
                       AIR SEA DIR/SP/G            HT
                 (UTC) (F)     (DEG/KT/KT) (MB)    (FT)

$$

INZ004-005-014>016-021>024-091100-
NORTH CENTRAL INDIANA

CITY           SKY/WX    TMP DP  RH WIND       PRES   REMARKS
GOSHEN         CLOUDY    22  16  78 W14       30.38S WCI   9
LOGANSPORT +   FLURRIES  23  18  80 W9        30.47S WCI  13
PERU/GRISSOM   FLURRIES  19  18  93 W14       30.43S WCI   6
ROCHESTER +    FLURRIES  25  21  86 W14G21    30.43R WCI  13
SOUTH BEND     FLURRIES  20  18  92 SW12      30.39R WCI   8
WARSAW +       CLOUDY    23  16  74 W10       30.40S WCI  12

$$

INZ006>009-017-018-025>027-091100-
NORTHEAST INDIANA

CITY           SKY/WX    TMP DP  RH WIND       PRES   REMARKS
ANGOLA *+      CLOUDY    21  18  86 W8        30.33S WCI  12
AUBURN +       MOCLDY    23  18  80 W9        30.38R WCI  13
FORT WAYNE     PTCLDY    21  15  78 W13       30.40S WCI   9
HUNTINGTON +   PTCLDY    20  16  84 W9G16     30.41S WCI   9
KENDALLVILLE + CLOUDY    22  18  85 W15G23    30.36R WCI   8

$$

INZ028-029-035-036-043>045-051>053-091100-
WEST CENTRAL INDIANA

CITY           SKY/WX    TMP DP  RH WIND       PRES   REMARKS
CRAWFORDSVL +  LGT SNOW  19  18  95 W8        30.50S WCI   9
GREENCASTLE +  LGT SNOW  21  19  93 W6        30.51S WCI  14
LAFAYETTE      CLOUDY    21  16  81 W10       30.49S WCI  10
TERRE HAUTE    CLOUDY    21  14  74 W6        30.54S WCI  13

$$

INZ030>032-037>040-046>048-054>057-064-065-091100-
CENTRAL INDIANA

CITY           SKY/WX    TMP DP  RH WIND       PRES   REMARKS
CP ATTERBURY + FLURRIES  23  18  80 W6        30.52R WCI  16
FISHERS *+     CLOUDY    19  19 100 W6        30.48S WCI  11
FRANKFORT +    CLOUDY    23  18  78 W13       30.49R WCI  12
GREENWOOD *+   CLOUDY    21  18  86 W8        30.49S WCI  12
INDIANAPOLIS   FLURRIES  21  16  81 W9        30.49S WCI  11
-EAGLE CREEK   FLURRIES  21  16  81 W6        30.48S WCI  13
KOKOMO +       FLURRIES  20  16  84 W15       30.45S WCI   6
MARION +       CLEAR     18  16  89 W12       30.44R WCI   6
MT COMFORT *+  CLOUDY    19  16  86 W10       30.47S WCI   8
SHELBYVILLE    FLURRIES  21  16  81 W10       30.48S WCI  10
ZIONSVILLE +   FLURRIES  20  15  81 W13       30.48S WCI   7

$$

INZ033-034-041-042-049-050-058-059-091100-
EAST CENTRAL INDIANA

CITY           SKY/WX    TMP DP  RH WIND       PRES   REMARKS
MUNCIE         CLEAR     20  16  84 W10       30.43S WCI   9

$$

INZ060-061-067>069-081>083-085>088-091100-
SOUTHWEST INDIANA

CITY           SKY/WX    TMP DP  RH WIND       PRES   REMARKS
EVANSVILLE     MOCLDY    22  12  65 NW7       30.59S WCI  13
HUNTINGBURG *+ CLOUDY    23  15  71 NW8       30.56S WCI  14
WASHINGTON +   CLOUDY    22  14  70 N8        30.57R WCI  13

$$

INZ062-063-066-070>080-084-089>092-091100-
SOUTH CENTRAL AND SOUTHEAST INDIANA

CITY           SKY/WX    TMP DP  RH WIND       PRES   REMARKS
BLOOMINGTON    FLURRIES  21  12  68 NW9       30.52R WCI  11
MADISON *+     CLOUDY    23  12  63 W6        30.53S WCI  16
NORTH VERNON + FLURRIES  23  19  86 W7        30.52R WCI  15
SEYMOUR +      CLOUDY    23  12  63 W7        30.53  WCI  15

$$




USA.gov is the U.S. government's official web portal to all federal, state and local government web resources and services.